1499990400.45,32252,18.13,73914.5,-1.75,-37.63,-38.43,0,*5A
1499990401.68,32253,18.13,73914.0,-1.73,-37.75,-38.61,0,*5A
1499990402.93,32254,18.13,73916.8,-1.73,-37.63,-38.43,0,*5A
1499990404.22,32255,18.13,73914.8,-1.73,-37.09,-37.99,0,*5F
1499990405.46,32256,18.13,73914.8,-1.75,-37.45,-38.29,0,*56
1499990406.71,32257,18.13,73914.0,-1.73,-37.63,-38.61,0,*59
1499990407.98,32258,18.13,73908.8,-1.75,-37.81,-38.67,0,*5A
1499990409.2,32259,18.13,73912.0,-1.73,-37.75,-38.73,0,*53
1499990410.44,32260,18.13,73914.3,-1.75,-37.87,-38.67,0,*57
1499990411.7,32261,18.13,73912.3,-1.75,-37.51,-38.49,0,*51
1499990412.94,32262,18.13,73914.3,-1.75,-37.45,-38.23,0,*5B
1499990414.15,32263,18.13,73914.3,-1.75,-37.27,-38.05,0,*5A
1499990415.41,32264,18.13,73912.5,-1.75,-37.69,-38.67,0,*53
1499990416.69,32265,18.13,73916.5,-1.73,-37.93,-38.79,0,*5E
1499990417.95,32266,18.13,73912.3,-1.73,-37.81,-38.55,0,*50
1499990419.19,32267,18.13,73914.3,-1.75,-37.87,-38.79,0,*5F
1499990420.43,32268,18.13,73912.5,-1.75,-37.87,-38.67,0,*5F
1499990421.69,32269,18.13,73912.8,-1.75,-37.69,-38.67,0,*5E
1499990422.96,32270,18.13,73912.0,-1.77,-37.63,-38.43,0,*58
1499990424.22,32271,18.13,73912.5,-1.77,-37.33,-38.23,0,*5A
1499990425.46,32272,18.13,73914.0,-1.77,-37.15,-37.87,0,*5C
1499990426.75,32273,18.13,73912.8,-1.77,-37.63,-38.49,0,*51
1499990428.01,32274,18.13,73912.3,-1.75,-37.69,-38.67,0,*52
1499990429.25,32275,18.13,73914.5,-1.75,-37.87,-38.79,0,*5C
1499990430.49,32276,18.13,73912.3,-1.75,-37.45,-38.23,0,*5E
1499990431.73,32277,18.13,73912.0,-1.75,-37.63,-38.43,0,*5D
1499990432.99,32278,18.13,73912.5,-1.77,-37.87,-38.79,0,*53
1499990434.25,32279,18.13,73916.5,-1.77,-37.69,-38.61,0,*5B
1499990435.45,32280,18.13,73916.3,-1.81,-37.75,-38.73,0,*5A
1499990436.71,32281,18.13,73912.0,-1.77,-37.69,-38.61,0,*5C
1499990437.94,32282,18.13,73912.3,-1.77,-37.33,-38.05,0,*52
1499990439.15,32283,18.13,73914.5,-1.81,-37.45,-38.17,0,*58
1499990440.41,32284,18.13,73916.0,-1.77,-37.45,-38.23,0,*51
1499990441.67,32285,18.13,73914.5,-1.77,-37.63,-38.43,0,*52
1499990442.88,32286,18.13,73912.5,-1.81,-37.75,-38.35,0,*5E
1499990444.14,32287,18.13,73912.3,-1.77,-37.45,-38.23,0,*52
1499990445.4,32288,18.13,73912.3,-1.77,-37.27,-38.11,0,*58
1499990446.67,32289,18.13,73912.3,-1.77,-37.15,-37.99,0,*57
1499990447.9,32290,18.13,73912.3,-1.77,-37.27,-38.05,0,*54
1499990449.16,32291,18.13,73914.5,-1.81,-37.93,-38.79,0,*58
1499990450.41,32292,18.13,73912.3,-1.81,-38.11,-38.79,0,*5E
1499990451.61,32293,18.13,73912.0,-1.81,-37.57,-38.35,0,*5A
1499990452.9,32294,18.13,73912.3,-1.77,-37.51,-38.29,0,*5F
1499990454.17,32295,18.13,73912.0,-1.77,-37.45,-38.23,0,*51
1499990455.39,32296,18.13,73914.5,-1.81,-37.39,-38.17,0,*57
1499990456.62,32297,18.13,73914.8,-1.81,-37.39,-38.17,0,*56
1499990457.89,32298,18.13,73914.8,-1.77,-37.45,-38.23,0,*5C
1499990459.18,32299,18.13,73908.5,-1.77,-37.63,-38.29,0,*53
1499990460.44,32300,18.13,73912.0,-1.77,-37.63,-38.43,0,*5E
1499990461.65,32301,18.13,73914.3,-1.81,-37.75,-38.55,0,*56
1499990462.85,32302,18.13,73912.5,-1.81,-37.75,-38.55,0,*55
1499990464.12,32303,18.13,73912.0,-1.77,-37.33,-38.29,0,*54
1499990465.32,32304,18.13,73914.3,-1.81,-37.57,-38.35,0,*55
1499990466.56,32305,18.13,73912.8,-1.81,-37.81,-38.61,0,*5E
1499990467.78,32306,18.13,73912.8,-1.81,-37.99,-38.73,0,*57
1499990469.01,32307,18.13,73912.8,-1.81,-37.93,-38.73,0,*5C
1499990470.26,32308,18.13,73912.0,-1.81,-37.93,-38.79,0,*59
1499990471.47,32309,18.13,73912.8,-1.81,-37.57,-38.35,0,*58
1499990472.7,32310,18.13,73912.8,-1.83,-37.57,-38.35,0,*52
1499990473.93,32311,18.13,73914.3,-1.83,-37.75,-38.73,0,*51
1499990475.16,32312,18.06,73910.5,-1.83,-37.75,-38.55,0,*56
1499990476.43,32313,18.13,73912.8,-1.83,-37.63,-38.43,0,*57
1499990477.69,32314,18.13,73912.0,-1.83,-37.63,-38.55,0,*57
1499990478.92,32315,18.13,73912.0,-1.83,-37.45,-38.35,0,*54
1499990480.18,32316,18.13,73912.5,-1.85,-37.69,-38.49,0,*54
1499990481.41,32317,18.13,73912.0,-1.85,-37.81,-38.61,0,*59
1499990482.67,32318,18.13,73912.0,-1.83,-37.81,-38.73,0,*53
1499990483.93,32319,18.13,73908.8,-1.83,-37.63,-38.55,0,*5A
1499990485.17,32320,18.13,73914.8,-1.83,-37.75,-38.61,0,*50
1499990486.43,32321,18.13,73912.5,-1.85,-37.81,-38.67,0,*5A
1499990487.71,32322,18.13,73908.8,-1.83,-37.93,-38.79,0,*53
1499990488.94,32323,18.13,73908.5,-1.85,-37.99,-38.85,0,*5D
1499990490.14,32324,18.13,73912.0,-1.85,-38.05,-38.97,0,*53
1499990491.4,32325,18.13,73914.8,-1.85,-37.99,-38.79,0,*58
1499990492.6,32326,18.13,73914.0,-1.85,-38.05,-38.85,0,*52
1499990493.85,32327,18.13,73912.0,-1.87,-38.17,-39.03,0,*5D
1499990495.09,32328,18.13,73912.0,-1.87,-38.05,-39.03,0,*51
1499990496.35,32329,18.13,73908.5,-1.87,-37.99,-38.97,0,*56
1499990497.6,32330,18.13,73914.0,-1.87,-37.99,-38.85,0,*5D
1499990498.86,32331,18.13,73912.3,-1.87,-37.99,-38.85,0,*5C
1499990500.09,32332,18.13,73912.8,-1.89,-37.87,-38.91,0,*5B
1499990501.31,32333,18.13,73914.0,-1.89,-37.93,-38.73,0,*53
1499990502.54,32334,18.13,73914.0,-1.89,-37.93,-38.73,0,*54
1499990503.76,32335,18.13,73908.3,-1.87,-37.27,-38.17,0,*56
1499990505.05,32336,18.13,73910.8,-1.87,-37.09,-37.99,0,*50
1499990506.3,32337,18.13,73908.8,-1.87,-37.15,-37.99,0,*5C
1499990507.59,32338,18.13,73910.8,-1.87,-37.51,-38.29,0,*57
1499990508.84,32339,18.13,73912.5,-1.87,-37.45,-38.23,0,*59
1499990510.09,32340,18.13,73910.0,-1.89,-37.69,-38.67,0,*57
1499990511.32,32341,18.13,73910.8,-1.89,-37.33,-38.11,0,*58
1499990512.55,32342,18.13,73910.3,-1.89,-37.03,-37.93,0,*5D
1499990513.8,32343,18.13,73910.5,-1.83,-36.79,-37.57,0,*52
1499990515.08,32344,18.13,73910.0,-1.87,-36.91,-37.69,0,*5A
1499990516.36,32345,18.13,73908.5,-1.87,-37.09,-37.99,0,*54
1499990517.59,32346,18.13,73908.3,-1.87,-37.27,-38.17,0,*52
1499990518.79,32347,18.13,73912.3,-1.85,-37.27,-38.05,0,*52
1499990520.01,32348,18.13,73910.0,-1.87,-37.27,-38.05,0,*5F
1499990521.24,32349,18.13,73910.5,-1.85,-37.33,-38.23,0,*5D
1499990522.5,32350,18.13,73908.3,-1.85,-37.51,-38.23,0,*51
1499990523.7,32351,18.13,73914.5,-1.85,-37.33,-38.43,0,*52
1499990524.96,32352,18.13,73908.3,-1.85,-37.51,-38.29,0,*59
1499990526.16,32353,18.13,73908.8,-1.85,-37.33,-38.17,0,*51
1499990527.36,32354,18.13,73908.3,-1.85,-37.27,-38.05,0,*50
1499990528.56,32355,18.13,73910.3,-1.85,-37.33,-38.17,0,*57
1499990529.82,32356,18.13,73908.0,-1.83,-37.21,-38.05,0,*52
1499990531.06,32357,18.06,73906.0,-1.85,-37.09,-37.87,0,*5A
1499990532.29,32358,18.13,73908.3,-1.85,-36.91,-37.87,0,*55
1499990533.55,32359,18.13,73912.3,-1.83,-37.27,-38.11,0,*5E
1499990534.75,32360,18.13,73908.5,-1.85,-37.27,-38.05,0,*57
1499990536.03,32361,18.13,73914.0,-1.83,-37.09,-37.93,0,*5C
1499990537.26,32362,18.13,73908.5,-1.85,-37.15,-37.99,0,*5E
1499990538.55,32363,18.13,73908.8,-1.83,-37.09,-37.81,0,*5D
1499990539.79,32364,18.13,73910.5,-1.85,-37.15,-37.99,0,*58
1499990541.02,32365,18.13,73910.8,-1.85,-37.15,-37.99,0,*59
1499990542.22,32366,18.13,73914.5,-1.85,-37.27,-38.05,0,*51
1499990543.42,32367,18.13,73910.3,-1.85,-37.33,-38.17,0,*56
1499990544.68,32368,18.13,73908.0,-1.85,-37.51,-38.29,0,*50
1499990545.91,32369,18.13,73912.5,-1.85,-37.45,-38.23,0,*5E
1499990547.14,32370,18.13,73912.5,-1.85,-37.45,-38.29,0,*5C
1499990548.39,32371,18.13,73910.8,-1.85,-37.51,-38.29,0,*58
1499990549.65,32372,18.13,73914.5,-1.83,-37.45,-38.23,0,*52
1499990550.91,32373,18.13,73908.5,-1.85,-37.69,-38.67,0,*5B
1499990552.16,32374,18.13,73912.3,-1.85,-37.63,-38.49,0,*5A
1499990553.42,32375,18.13,73912.0,-1.85,-37.51,-38.23,0,*56
1499990554.62,32376,18.13,73914.8,-1.85,-37.33,-38.05,0,*55
1499990555.9,32377,18.13,73914.5,-1.87,-37.09,-37.81,0,*5C
1499990557.16,32378,18.13,73918.0,-1.87,-36.97,-37.81,0,*55
1499990558.45,32379,18.13,73912.0,-1.83,-36.91,-37.81,0,*56
1499990559.68,32380,18.13,73912.8,-1.85,-37.09,-37.87,0,*50
1499990560.91,32381,18.13,73914.5,-1.85,-37.15,-37.99,0,*53
1499990562.12,32382,18.13,73914.3,-1.85,-37.15,-37.87,0,*5F
1499990563.36,32383,18.13,73912.0,-1.85,-37.15,-37.99,0,*51
1499990564.56,32384,18.13,73916.0,-1.85,-37.27,-38.17,0,*5E
1499990565.76,32385,18.13,73916.8,-1.85,-37.33,-38.17,0,*5A
1499990566.99,32386,18.13,73914.8,-1.85,-37.33,-38.23,0,*5E
1499990568.22,32387,18.13,73914.5,-1.83,-37.27,-38.17,0,*5B
1499990569.48,32388,18.06,73908.8,-1.83,-37.27,-37.99,0,*5D
1499990570.72,32389,18.13,73910.5,-1.83,-37.45,-38.43,0,*50
1499990571.97,32390,18.13,73916.3,-1.85,-37.63,-38.49,0,*50
1499990573.23,32391,18.13,73918.3,-1.85,-37.63,-38.49,0,*51
1499990574.46,32392,18.13,73918.3,-1.85,-37.63,-38.43,0,*58
1499990575.69,32393,18.13,73916.5,-1.85,-37.51,-38.43,0,*58
1499990576.92,32394,18.13,73914.5,-1.85,-37.51,-38.43,0,*5F
1499990578.15,32395,18.13,73912.8,-1.85,-37.87,-38.67,0,*53
1499990579.44,32396,18.13,73912.8,-1.87,-37.81,-38.67,0,*54
1499990580.7,32397,18.13,73916.0,-1.87,-37.87,-38.67,0,*53
1499990581.97,32398,18.13,73916.8,-1.87,-37.69,-38.49,0,*50
1499990583.26,32399,18.13,73914.5,-1.87,-37.51,-38.29,0,*5C
1499990584.49,32400,18.13,73914.0,-1.89,-37.51,-38.35,0,*58
1499990585.77,32401,18.13,73916.8,-1.87,-37.69,-38.49,0,*57
1499990587.0,32402,18.13,73914.5,-1.87,-37.87,-38.61,0,*5E
1499990588.22,32403,18.13,73912.0,-1.89,-37.93,-38.73,0,*57
1499990589.48,32404,18.13,73912.0,-1.87,-37.63,-38.43,0,*52
1499990590.69,32405,18.13,73912.0,-1.89,-37.75,-38.55,0,*5D
1499990591.95,32406,18.13,73912.3,-1.87,-37.81,-38.61,0,*5C
1499990593.17,32407,18.13,73914.8,-1.89,-37.93,-38.73,0,*53
1499990594.43,32408,18.13,73912.3,-1.89,-37.69,-38.49,0,*50
1499990595.66,32409,18.13,73914.3,-1.89,-37.69,-38.35,0,*5A
1499990596.92,32410,18.13,73914.5,-1.89,-37.69,-38.49,0,*59
1499990598.15,32411,18.13,73912.3,-1.89,-37.57,-38.49,0,*55
1499990599.35,32412,18.13,73912.8,-1.89,-37.57,-38.35,0,*5D
1499990600.56,32413,18.13,73914.0,-1.89,-37.57,-38.35,0,*5C
1499990601.79,32414,18.13,73914.0,-1.91,-37.57,-38.43,0,*53
1499990603.02,32415,18.13,73912.5,-1.91,-37.57,-38.35,0,*53
1499990604.26,32416,18.13,73914.5,-1.91,-37.45,-38.35,0,*53
1499990605.48,32417,18.13,73914.3,-1.91,-37.45,-38.17,0,*52
1499990606.69,32418,18.13,73918.0,-1.89,-36.97,-37.75,0,*51
1499990607.92,32419,18.13,73912.8,-1.91,-37.27,-38.17,0,*58
1499990609.12,32420,18.13,73912.0,-1.89,-37.15,-38.05,0,*59
1499990610.37,32421,18.13,73916.0,-1.87,-36.97,-37.69,0,*58
1499990611.64,32422,18.06,73908.3,-1.89,-37.21,-38.23,0,*58
1499990612.89,32423,18.13,73914.3,-1.89,-37.39,-38.11,0,*51
1499990614.14,32424,18.13,73912.3,-1.87,-37.33,-38.23,0,*53
1499990615.37,32425,18.13,73914.0,-1.89,-37.57,-38.49,0,*52
1499990616.6,32426,18.13,73912.8,-1.89,-37.75,-38.49,0,*51
1499990617.83,32427,18.13,73914.0,-1.89,-37.33,-38.23,0,*5E
1499990619.06,32428,18.13,73914.3,-1.87,-37.15,-38.05,0,*5F
1499990620.31,32429,18.13,73912.8,-1.87,-37.27,-38.23,0,*5B
1499990621.57,32430,18.13,73914.3,-1.89,-37.39,-38.23,0,*52
1499990622.8,32431,18.13,73914.3,-1.89,-37.33,-38.11,0,*58
1499990624.01,32432,18.13,73914.0,-1.89,-36.97,-37.87,0,*54
1499990625.24,32433,18.13,73912.8,-1.89,-37.33,-38.11,0,*5A
1499990626.49,32434,18.13,73912.8,-1.89,-37.39,-38.23,0,*56
1499990627.72,32435,18.13,73910.5,-1.89,-37.69,-38.43,0,*54
1499990628.98,32436,18.13,73912.0,-1.87,-37.81,-38.61,0,*5F
1499990630.27,32437,18.13,73914.5,-1.87,-37.63,-38.49,0,*58
1499990631.53,32438,18.13,73914.3,-1.87,-37.81,-38.61,0,*51
1499990632.78,32439,18.13,73912.3,-1.89,-37.51,-38.29,0,*5F
1499990633.99,32440,18.13,73914.5,-1.89,-37.33,-38.17,0,*58
1499990635.24,32441,18.13,73914.5,-1.89,-37.39,-38.23,0,*54
1499990636.47,32442,18.13,73912.0,-1.89,-37.93,-38.85,0,*5B
1499990637.7,32443,18.13,73910.0,-1.89,-37.75,-38.67,0,*5E
1499990638.97,32444,18.13,73916.5,-1.91,-37.81,-38.61,0,*5D
1499990640.19,32445,18.13,73914.8,-1.91,-38.17,-38.97,0,*55
1499990641.46,32446,18.13,73912.3,-1.91,-37.81,-38.55,0,*58
1499990642.71,32447,18.13,73914.0,-1.93,-37.99,-38.79,0,*5C
1499990643.94,32448,18.13,73912.3,-1.91,-38.17,-38.97,0,*58
1499990645.2,32449,18.13,73918.0,-1.93,-37.99,-38.79,0,*52
1499990646.44,32450,18.13,73914.5,-1.93,-37.81,-38.55,0,*5D
1499990647.64,32451,18.13,73916.3,-1.93,-37.75,-38.61,0,*50
1499990648.85,32452,18.13,73912.3,-1.93,-37.75,-38.55,0,*54
1499990650.1,32453,18.13,73914.3,-1.93,-37.39,-38.29,0,*56
1499990651.31,32454,18.13,73916.3,-1.93,-37.45,-38.35,0,*57
1499990652.57,32455,18.13,73918.5,-1.91,-37.39,-38.35,0,*5F
1499990653.77,32456,18.13,73914.0,-1.93,-37.57,-38.43,0,*57
1499990655.01,32457,18.13,73912.0,-1.93,-37.63,-38.43,0,*51
1499990656.24,32458,18.13,73914.3,-1.93,-37.57,-38.29,0,*55
1499990657.52,32459,18.13,73912.3,-1.91,-37.39,-38.29,0,*5E
1499990658.76,32460,18.13,73916.0,-1.93,-37.63,-38.55,0,*52
1499990659.99,32461,18.13,73912.3,-1.93,-37.63,-38.43,0,*54
1499990661.18,32462,18.13,73916.0,-1.93,-37.75,-38.73,0,*53
1499990662.39,32463,18.13,73918.0,-1.93,-37.75,-38.61,0,*51
1499990663.62,32464,18.13,73918.0,-1.93,-37.63,-38.55,0,*56
1499990664.87,32465,18.13,73916.3,-1.93,-37.99,-38.91,0,*5A
1499990666.07,32466,18.13,73914.8,-1.93,-37.75,-38.73,0,*57
1499990667.3,32467,18.13,73912.3,-1.93,-37.63,-38.55,0,*55
1499990668.51,32468,18.13,73914.5,-1.93,-37.57,-38.35,0,*5B
1499990669.76,32469,18.13,73916.5,-1.93,-37.39,-38.29,0,*5F
1499990671.0,32470,18.13,73916.3,-1.93,-37.63,-38.43,0,*54
1499990672.23,32471,18.13,73912.8,-1.93,-37.63,-38.35,0,*54
1499990673.46,32472,18.13,73916.5,-1.93,-37.57,-38.29,0,*5D
1499990674.69,32473,18.13,73918.0,-1.93,-37.63,-38.35,0,*56
1499990675.9,32474,18.13,73914.5,-1.93,-37.57,-38.35,0,*56
1499990677.13,32475,18.13,73914.0,-1.93,-37.81,-38.61,0,*5D
1499990678.39,32476,18.13,73912.8,-1.95,-37.63,-38.43,0,*54
1499990679.68,32477,18.13,73914.8,-1.95,-37.81,-38.49,0,*53
1499990680.91,32478,18.13,73916.8,-1.97,-37.51,-38.35,0,*58
1499990682.14,32479,18.13,73912.8,-1.97,-37.69,-38.61,0,*53
1499990683.34,32480,18.13,73914.0,-1.97,-38.05,-38.97,0,*59
1499990684.56,32481,18.13,73912.8,-1.97,-38.17,-38.79,0,*5B
1499990685.82,32482,18.13,73914.5,-1.97,-37.63,-38.49,0,*57
1499990687.1,32483,18.13,73912.8,-1.95,-37.63,-38.49,0,*54
1499990688.33,32484,18.13,73912.0,-1.97,-37.63,-38.35,0,*5A
1499990689.56,32485,18.13,73910.3,-1.95,-37.27,-38.05,0,*5A
1499990690.81,32486,18.13,73912.5,-1.95,-37.33,-37.99,0,*56
1499990692.05,32487,18.13,73912.0,-1.95,-37.15,-37.87,0,*5C
1499990693.28,32488,18.13,73914.8,-1.95,-37.27,-38.05,0,*57
1499990694.5,32489,18.13,73908.0,-1.95,-37.33,-38.05,0,*53
1499990695.73,32490,18.13,73910.8,-1.95,-37.45,-38.17,0,*59
1499990696.99,32491,18.13,73908.5,-1.95,-37.45,-38.23,0,*5F
1499990698.22,32492,18.13,73912.0,-1.97,-37.63,-38.35,0,*5D
1499990699.48,32493,18.13,73910.3,-1.95,-37.81,-38.43,0,*53
1499990700.74,32494,18.13,73910.3,-1.95,-37.45,-38.23,0,*5A
1499990702.0,32495,18.13,73908.0,-1.95,-37.15,-37.99,0,*50
1499990703.29,32496,18.13,73908.3,-1.95,-37.09,-37.81,0,*57
1499990704.51,32497,18.13,73910.0,-1.93,-37.27,-38.11,0,*5A
1499990705.72,32498,18.13,73908.5,-1.93,-37.75,-38.43,0,*55
1499990706.97,32499,18.13,73910.0,-1.95,-37.99,-38.61,0,*50
1499990708.26,32500,18.13,73906.8,-1.95,-37.51,-38.23,0,*53
1499990709.52,32501,18.13,73908.0,-1.95,-37.15,-37.99,0,*5C
1499990710.81,32502,18.13,73910.0,-1.95,-37.81,-38.49,0,*50
1499990712.03,32503,18.13,73910.0,-1.97,-38.05,-38.79,0,*53
1499990713.26,32504,18.13,73910.5,-1.97,-37.87,-38.67,0,*5E
1499990714.52,32505,18.13,73908.8,-1.95,-38.05,-38.67,0,*58
1499990715.75,32506,18.13,73910.0,-1.97,-37.99,-38.61,0,*55
1499990717.0,32507,18.13,73908.0,-1.97,-37.99,-38.67,0,*52
1499990718.23,32508,18.13,73910.3,-1.97,-37.45,-38.23,0,*5C
1499990719.46,32509,18.13,73908.5,-1.97,-37.63,-38.43,0,*5F
1499990720.69,32510,18.13,73910.0,-1.97,-37.87,-38.49,0,*57
1499990721.98,32511,18.06,73906.8,-1.99,-37.69,-38.29,0,*5E
1499990723.23,32512,18.13,73908.0,-1.99,-37.15,-37.93,0,*58
1499990724.43,32513,18.13,73910.3,-1.97,-37.33,-38.17,0,*50
1499990725.63,32514,18.13,73912.8,-1.97,-37.33,-37.87,0,*51
1499990726.89,32515,18.13,73910.8,-1.97,-37.09,-37.81,0,*5F
1499990728.12,32516,18.13,73910.3,-1.95,-36.73,-37.33,0,*5B
1499990729.32,32517,18.13,73914.5,-1.97,-36.73,-37.33,0,*58
1499990730.59,32518,18.13,73912.8,-1.95,-36.73,-37.51,0,*51
1499990731.85,32519,18.13,73912.8,-1.95,-36.85,-37.51,0,*59
1499990733.11,32520,18.13,73914.0,-1.95,-37.27,-37.99,0,*5E
1499990734.37,32521,18.13,73914.8,-1.95,-37.27,-37.99,0,*5F
1499990735.63,32522,18.13,73914.8,-1.95,-37.15,-37.99,0,*5D
1499990736.91,32523,18.06,73912.0,-1.95,-37.09,-37.69,0,*5E
1499990738.13,32524,18.13,73918.5,-1.95,-37.33,-38.05,0,*55
1499990739.39,32525,18.13,73912.8,-1.95,-37.33,-37.99,0,*5E
1499990740.62,32526,18.13,73916.5,-1.93,-37.09,-37.75,0,*50
1499990741.87,32527,18.13,73912.8,-1.93,-36.49,-37.09,0,*5F
1499990743.16,32528,18.13,73914.0,-1.91,-36.79,-37.39,0,*52
1499990744.36,32529,18.13,73914.0,-1.93,-36.97,-37.57,0,*59
1499990745.6,32530,18.13,73914.5,-1.91,-36.85,-37.57,0,*50
1499990746.85,32531,18.13,73912.3,-1.91,-36.79,-37.45,0,*51
1499990748.08,32532,18.13,73914.0,-1.93,-37.09,-37.75,0,*55
1499990749.34,32533,18.13,73912.3,-1.93,-37.21,-37.81,0,*55
1499990750.62,32534,18.06,73910.3,-1.91,-37.09,-37.93,0,*59
1499990751.91,32535,18.13,73914.3,-1.91,-36.61,-37.39,0,*57
1499990753.17,32536,18.13,73914.5,-1.91,-36.85,-37.63,0,*51
1499990754.38,32537,18.13,73912.0,-1.89,-37.15,-37.75,0,*56
1499990755.61,32538,18.13,73914.5,-1.89,-37.21,-38.05,0,*56
1499990756.86,32539,18.13,73912.0,-1.91,-37.27,-38.11,0,*5D
1499990758.12,32540,18.13,73910.8,-1.91,-37.39,-38.17,0,*5A
1499990759.4,32541,18.13,73908.5,-1.91,-37.21,-37.93,0,*51
1499990760.63,32542,18.13,73912.5,-1.89,-37.33,-38.11,0,*5D
1499990761.89,32543,18.13,73910.3,-1.89,-37.39,-38.23,0,*57
1499990763.11,32544,18.13,73912.5,-1.89,-37.33,-38.11,0,*5B
1499990764.36,32545,18.13,73910.8,-1.91,-37.45,-38.11,0,*52
1499990765.65,32546,18.13,73908.5,-1.91,-37.39,-38.29,0,*51
1499990766.88,32547,18.13,73912.8,-1.91,-37.27,-38.17,0,*52
1499990768.17,32548,18.06,73908.8,-1.91,-37.21,-37.99,0,*52
1499990769.45,32549,18.13,73912.3,-1.91,-37.21,-37.93,0,*59
1499990770.71,32550,18.13,73914.5,-1.91,-37.63,-38.43,0,*55
1499990771.94,32551,18.13,73912.5,-1.91,-37.45,-38.17,0,*51
1499990773.17,32552,18.13,73912.0,-1.93,-37.27,-38.11,0,*52
1499990774.46,32553,18.13,73918.3,-1.91,-37.21,-37.99,0,*58
1499990775.69,32554,18.13,73912.5,-1.91,-37.57,-38.43,0,*56
1499990776.95,32555,18.13,73912.0,-1.91,-37.81,-38.61,0,*5C
1499990778.21,32556,18.13,73914.0,-1.91,-37.45,-38.29,0,*5B
1499990779.47,32557,18.13,73912.8,-1.91,-37.63,-38.43,0,*52
1499990780.7,32558,18.13,73910.8,-1.93,-37.63,-38.43,0,*5F
1499990781.94,32559,18.13,73914.3,-1.93,-37.81,-38.61,0,*52
1499990783.16,32560,18.13,73912.5,-1.93,-37.99,-38.73,0,*52
1499990784.39,32561,18.13,73912.5,-1.93,-37.99,-38.73,0,*53
1499990785.61,32562,18.13,73912.8,-1.93,-37.93,-38.73,0,*5A
1499990786.85,32563,18.13,73914.8,-1.93,-37.81,-38.43,0,*5B
1499990788.05,32564,18.13,73912.8,-1.93,-37.75,-38.43,0,*57
1499990789.29,32565,18.13,73912.8,-1.93,-37.63,-38.35,0,*50
1499990790.52,32566,18.13,73916.8,-1.93,-37.45,-38.29,0,*5A
1499990791.75,32567,18.06,73914.5,-1.93,-37.63,-38.43,0,*53
1499990793.01,32568,18.13,73914.3,-1.95,-37.63,-38.43,0,*5A
1499990794.26,32569,18.13,73914.3,-1.95,-37.51,-38.17,0,*5B
1499990795.55,32570,18.13,73914.5,-1.95,-37.69,-38.49,0,*53
1499990796.81,32571,18.13,73914.5,-1.95,-37.81,-38.43,0,*5E
1499990798.04,32572,18.13,73914.8,-1.95,-37.33,-38.05,0,*56
1499990799.32,32573,18.13,73916.3,-1.95,-37.63,-38.23,0,*56
1499990800.59,32574,18.13,73914.3,-1.95,-37.81,-38.35,0,*5A
1499990801.82,32575,18.06,73912.0,-1.95,-37.15,-37.87,0,*50
1499990803.08,32576,18.13,73912.5,-1.97,-37.09,-37.81,0,*5A
1499990804.31,32577,18.13,73912.5,-1.97,-37.27,-37.99,0,*5E
1499990805.54,32578,18.13,73912.3,-1.95,-37.15,-37.87,0,*5D
1499990806.83,32579,18.13,73914.8,-1.95,-37.63,-38.23,0,*5C
1499990808.06,32580,18.13,73912.3,-1.95,-37.45,-38.35,0,*59
1499990809.29,32581,18.06,73908.3,-1.95,-37.45,-38.35,0,*58
1499990810.55,32582,18.13,73912.3,-1.95,-37.63,-38.35,0,*5F
1499990811.81,32583,18.06,73910.8,-1.95,-37.63,-38.43,0,*5F
1499990813.06,32584,18.13,73914.3,-1.97,-37.69,-38.49,0,*5A
1499990814.29,32585,18.06,73912.3,-1.95,-37.45,-38.17,0,*5C
1499990815.49,32586,18.13,73914.8,-1.97,-37.45,-38.17,0,*5D
1499990816.76,32587,18.13,73914.3,-1.95,-37.81,-38.43,0,*57
1499990818.01,32588,18.13,73914.5,-1.97,-37.51,-38.23,0,*51
1499990819.27,32589,18.13,73914.8,-1.95,-37.27,-37.99,0,*5D
1499990820.5,32590,18.13,73914.0,-1.95,-37.33,-38.17,0,*59
1499990821.73,32591,18.13,73912.5,-1.97,-37.51,-38.43,0,*5F
1499990822.98,32592,18.13,73914.5,-1.95,-37.51,-38.17,0,*5F
1499990824.21,32593,18.13,73914.3,-1.95,-37.33,-38.17,0,*5A
1499990825.41,32594,18.06,73912.0,-1.97,-37.45,-38.17,0,*5E
1499990826.61,32595,18.06,73914.3,-1.97,-37.45,-38.17,0,*5F
1499990827.8,32596,18.06,73908.5,-1.97,-37.45,-38.05,0,*5F
1499990829.03,32597,18.13,73912.3,-1.95,-37.33,-38.05,0,*5D
1499990830.29,32598,18.06,73914.0,-1.95,-37.15,-37.99,0,*5C
1499990831.51,32599,18.06,73914.5,-1.95,-37.33,-38.05,0,*53
1499990832.74,32600,18.06,73912.0,-1.97,-37.27,-37.99,0,*5D
1499990833.97,32601,18.06,73914.8,-1.97,-37.51,-38.17,0,*54
1499990835.2,32602,18.06,73912.8,-1.95,-37.45,-38.17,0,*50
1499990836.42,32603,18.13,73912.8,-1.95,-37.33,-38.05,0,*53
1499990837.66,32604,18.06,73914.8,-1.95,-37.27,-37.87,0,*54
1499990838.89,32605,18.13,73918.5,-1.93,-37.27,-37.93,0,*56
1499990840.15,32606,18.13,73916.0,-1.95,-37.63,-38.35,0,*50
1499990841.4,32607,18.13,73918.5,-1.95,-37.69,-38.35,0,*5B
1499990842.63,32608,18.13,73916.8,-1.95,-37.27,-38.05,0,*5D
1499990843.92,32609,18.06,73914.0,-1.95,-37.51,-38.23,0,*59
1499990845.14,32610,18.06,73916.0,-1.95,-37.33,-38.05,0,*51
1499990846.37,32611,18.06,73916.0,-1.95,-37.33,-38.17,0,*53
1499990847.6,32612,18.06,73912.8,-1.95,-37.33,-38.17,0,*50
1499990848.85,32613,18.06,73914.3,-1.95,-37.45,-38.23,0,*57
1499990850.11,32614,18.06,73914.0,-1.95,-37.51,-38.35,0,*52
1499990851.39,32615,18.06,73912.8,-1.95,-37.09,-37.69,0,*58
1499990852.65,32616,18.13,73916.8,-1.95,-37.03,-37.51,0,*5A
1499990853.88,32617,18.06,73912.5,-1.95,-36.85,-37.33,0,*50
1499990855.11,32618,18.06,73914.3,-1.95,-36.73,-37.45,0,*57
1499990856.37,32619,18.13,73914.5,-1.95,-37.03,-37.81,0,*58
1499990857.63,32620,18.13,73916.5,-1.95,-36.85,-37.63,0,*51
1499990858.86,32621,18.13,73914.8,-1.95,-36.67,-37.33,0,*59
1499990860.12,32622,18.06,73912.8,-1.93,-36.49,-37.09,0,*59
1499990861.37,32623,18.06,73912.3,-1.91,-36.49,-37.27,0,*56
1499990862.63,32624,18.06,73910.8,-1.91,-36.25,-36.85,0,*52
1499990863.88,32625,18.13,73916.0,-1.91,-36.61,-37.27,0,*5A
1499990865.13,32626,18.13,73912.8,-1.91,-36.61,-37.27,0,*59
1499990866.39,32627,18.06,73912.0,-1.89,-36.91,-37.69,0,*54
1499990867.59,32628,18.06,73914.0,-1.89,-36.97,-37.57,0,*50
1499990868.88,32629,18.13,73912.5,-1.87,-36.91,-37.63,0,*5E
1499990870.13,32630,18.13,73912.3,-1.89,-36.79,-37.39,0,*51
1499990871.37,32631,18.06,73914.0,-1.89,-36.43,-37.21,0,*50
1499990872.6,32632,18.06,73912.5,-1.89,-36.43,-37.21,0,*53
1499990873.85,32633,18.13,73912.0,-1.87,-36.13,-36.73,0,*5F
1499990875.08,32634,18.06,73914.0,-1.85,-36.37,-36.97,0,*56
1499990876.33,32635,18.06,73914.0,-1.87,-36.31,-36.91,0,*55
1499990877.55,32636,18.13,73914.5,-1.87,-36.31,-36.97,0,*50
1499990878.82,32637,18.06,73912.3,-1.87,-35.83,-36.55,0,*55
1499990880.04,32638,18.13,73914.8,-1.85,-36.19,-36.91,0,*50
1499990881.27,32639,18.06,73912.0,-1.85,-36.49,-36.97,0,*52
1499990882.49,32640,18.06,73910.8,-1.85,-36.49,-37.27,0,*56
1499990883.71,32641,18.13,73912.0,-1.85,-36.13,-36.85,0,*51
1499990885.0,32642,18.06,73914.8,-1.83,-36.25,-36.79,0,*52
1499990886.26,32643,18.06,73910.3,-1.83,-36.43,-37.09,0,*55
1499990887.51,32644,18.06,73914.0,-1.81,-36.61,-37.21,0,*5A
1499990888.74,32645,18.06,73910.0,-1.81,-36.31,-36.91,0,*54
1499990889.97,32646,18.06,73908.5,-1.81,-36.43,-36.91,0,*52
1499990891.2,32647,18.06,73910.3,-1.81,-36.91,-37.57,0,*57
1499990892.46,32648,18.06,73910.8,-1.81,-36.49,-37.09,0,*56
1499990893.71,32649,18.06,73910.8,-1.81,-36.61,-37.09,0,*5D
1499990894.93,32650,18.06,73910.5,-1.81,-36.79,-37.45,0,*54
1499990896.19,32651,18.06,73912.0,-1.81,-36.91,-37.63,0,*57